This demonstration page uses our WeatherBlox Daily Observations layout. Learn more.

Left ArrowRight Arrow

38.88101, -77.10428

Hourly Observations for June 23, 2021

Temp ( °F °C ) Dew Point ( °F °C ) Humidity (%) Winds ( mph kmh ) Pressure ( in mb ) Visibility ( mi km ) Precip ( " mm )
12:52 am 00:52 Mostly Clear 61 16.1 50 10 67 67 NNW 8 13 30.05 1018 10 16 N/A
1:52 am 01:52 Mostly Clear 61 16.1 50 10 67 67 NNW 7 11 30.07 1018 10 16 N/A
2:52 am 02:52 Partly Cloudy 59 15 50 10 72 72 NNW 8 13 30.08 1019 10 16 N/A
3:52 am 03:52 Partly Cloudy 59 15 47 8.3 64 64 NW 6 9 30.09 1019 10 16 N/A
4:52 am 04:52 Mostly Clear 58 14.4 48 8.9 70 70 NW 6 9 30.11 1020 10 16 N/A
5:52 am 05:52 Mostly Sunny 57 13.9 46 7.8 67 67 NNW 7 11 30.15 1021 10 16 N/A
6:52 am 06:52 Mostly Sunny 59 15 48 8.9 67 67 NNW 5 7 30.17 1022 10 16 N/A
7:52 am 07:52 Mostly Sunny 64 17.8 47 8.3 54 54 N 7 11 30.19 1022 10 16 N/A
8:52 am 08:52 Mostly Sunny 66 18.9 46 7.8 49 49 NNE 9 15 30.21 1023 10 16 N/A
9:52 am 09:52 Mostly Sunny 69 20.6 45 7.2 42 42 NE 7 11 30.23 1024 10 16 N/A
10:52 am 10:52 Mostly Sunny 71 21.7 44 6.7 38 38 NNE 7 11 30.23 1024 10 16 N/A
11:52 am 11:52 Mostly Sunny 72 22.2 44 6.7 37 37 NNE 7 11 30.24 1024 10 16 N/A
12:52 pm 12:52 Mostly Sunny 73 22.8 43 6.1 34 34 N N/A 30.24 1024 10 16 N/A
1:52 pm 13:52 Mostly Sunny 74 23.3 43 6.1 33 33 N N/A 30.24 1024 10 16 N/A
2:52 pm 14:52 Partly Cloudy 75 23.9 44 6.7 33 33 SE 3 6 30.24 1024 10 16 N/A
3:52 pm 15:52 Partly Cloudy 78 25.6 44 6.7 30 30 VRB 3 6 30.24 1024 10 16 N/A
4:52 pm 16:52 Partly Cloudy 77 25 42 5.6 29 29 N N/A 30.23 1024 10 16 N/A
5:52 pm 17:52 Partly Cloudy 76 24.4 43 6.1 31 31 E 6 9 30.22 1023 10 16 N/A
6:52 pm 18:52 Partly Cloudy 75 23.9 50 10 41 41 E 13 20 30.23 1024 10 16 N/A
7:52 pm 19:52 Partly Cloudy 72 22.2 50 10 46 46 SSE 12 19 30.25 1024 10 16 N/A
8:52 pm 20:52 Partly Cloudy 70 21.1 49 9.4 47 47 SE 9 15 30.27 1025 10 16 N/A
9:52 pm 21:52 Partly Cloudy 68 20 49 9.4 51 51 SSE 7 11 30.29 1026 10 16 N/A
10:52 pm 22:52 Partly Cloudy 66 18.9 50 10 56 56 S 3 6 30.30 1026 10 16 N/A
11:52 pm 23:52 Partly Cloudy 68 20 49 9.4 51 51 N N/A 30.30 1026 10 16 N/A

Powered by AerisWeather